• In Hungary
  • List of Countries
  • For 7 days
  • Water Temperature
  • Satellite Maps
  • Weather Map
  • News
  • Weather Widgets
  • user-avatar
    Login

    Hourly Weather Assemini

    Today, 25 September, Tuesday

    Time Temperature Precipitation Wind Pressure Humidity
    00:00 +21°C° 0 mm 4 mps 763 mmHg 69%
    01:00 +21°C° 0 mm 4 mps 763 mmHg 71%
    02:00 +21°C° 0 mm 3 mps 763 mmHg 73%
    03:00 +21°C° 0 mm 3 mps 763 mmHg 74%
    04:00 +21°C° 0 mm 2 mps 763 mmHg 75%
    05:00 +21°C° 0 mm 2 mps 763 mmHg 75%
    06:00 +21°C° 0 mm 2 mps 763 mmHg 75%
    07:00 +21°C° 0 mm 2 mps 763 mmHg 75%
    08:00 +24°C° 0 mm 1 mps 764 mmHg 70%
    09:00 +26°C° 0 mm 1 mps 764 mmHg 65%
    10:00 +28°C° 0 mm 1 mps 764 mmHg 60%
    11:00 +28°C° 0.2 mm 2 mps 765 mmHg 60%
    12:00 +28°C° 0.2 mm 3 mps 765 mmHg 60%
    13:00 +28°C° 0.2 mm 4 mps 765 mmHg 60%
    14:00 +27°C° 0.3 mm 5 mps 765 mmHg 61%
    15:00 +26°C° 0.3 mm 6 mps 765 mmHg 62%
    16:00 +24°C° 0.3 mm 7 mps 765 mmHg 62%
    17:00 +23°C° 0 mm 7 mps 765 mmHg 62%
    18:00 +23°C° 0 mm 7 mps 766 mmHg 61%
    19:00 +23°C° 0 mm 6 mps 766 mmHg 61%
    20:00 +22°C° 0 mm 6 mps 766 mmHg 63%
    21:00 +22°C° 0 mm 6 mps 767 mmHg 64%
    22:00 +22°C° 0 mm 6 mps 767 mmHg 66%
    23:00 +22°C° 0 mm 6 mps 767 mmHg 68%

    Tomorrow, 26 September, Wednesday

    Time Temperature Precipitation Wind Pressure Humidity
    00:00 +21°C° 0 mm 6 mps 768 mmHg 70%
    01:00 +21°C° 0 mm 6 mps 768 mmHg 72%
    02:00 +21°C° 0 mm 6 mps 768 mmHg 72%
    03:00 +21°C° 0 mm 6 mps 768 mmHg 72%
    04:00 +21°C° 0 mm 6 mps 768 mmHg 72%
    05:00 +21°C° 0 mm 6 mps 768 mmHg 70%
    06:00 +21°C° 0 mm 6 mps 768 mmHg 69%
    07:00 +21°C° 0 mm 6 mps 769 mmHg 68%
    08:00 +22°C° 0 mm 6 mps 769 mmHg 63%
    09:00 +24°C° 0 mm 7 mps 770 mmHg 58%
    10:00 +26°C° 0 mm 7 mps 770 mmHg 53%
    11:00 +27°C° 0 mm 7 mps 770 mmHg 51%
    12:00 +28°C° 0 mm 6 mps 770 mmHg 50%
    13:00 +28°C° 0 mm 6 mps 770 mmHg 48%
    14:00 +28°C° 0 mm 6 mps 770 mmHg 48%
    15:00 +27°C° 0 mm 6 mps 770 mmHg 49%
    16:00 +27°C° 0 mm 6 mps 770 mmHg 49%
    17:00 +25°C° 0 mm 5 mps 770 mmHg 52%
    18:00 +23°C° 0 mm 5 mps 770 mmHg 55%
    19:00 +22°C° 0 mm 4 mps 770 mmHg 58%
    20:00 +21°C° 0 mm 4 mps 771 mmHg 60%
    21:00 +20°C° 0 mm 4 mps 771 mmHg 61%
    22:00 +20°C° 0 mm 4 mps 771 mmHg 63%
    23:00 +19°C° 0 mm 4 mps 771 mmHg 63%

    Day after tomorrow, 27 September, Thursday

    Time Temperature Precipitation Wind Pressure Humidity
    00:00 +19°C° 0 mm 4 mps 771 mmHg 64%
    01:00 +19°C° 0 mm 4 mps 771 mmHg 64%
    02:00 +18°C° 0 mm 3 mps 771 mmHg 65%
    03:00 +18°C° 0 mm 3 mps 770 mmHg 66%
    04:00 +18°C° 0 mm 3 mps 770 mmHg 67%
    05:00 +18°C° 0 mm 3 mps 770 mmHg 67%
    06:00 +18°C° 0 mm 3 mps 770 mmHg 66%
    07:00 +18°C° 0 mm 3 mps 770 mmHg 66%
    08:00 +21°C° 0 mm 3 mps 770 mmHg 59%
    09:00 +24°C° 0 mm 3 mps 770 mmHg 52%
    10:00 +26°C° 0 mm 3 mps 771 mmHg 45%
    11:00 +27°C° 0 mm 3 mps 770 mmHg 42%
    12:00 +27°C° 0 mm 3 mps 770 mmHg 40%
    13:00 +28°C° 0 mm 3 mps 770 mmHg 38%
    14:00 +28°C° 0 mm 3 mps 769 mmHg 39%
    15:00 +28°C° 0 mm 3 mps 769 mmHg 41%
    16:00 +27°C° 0 mm 3 mps 768 mmHg 42%
    17:00 +26°C° 0 mm 2 mps 768 mmHg 48%
    18:00 +24°C° 0 mm 2 mps 768 mmHg 53%
    19:00 +23°C° 0 mm 2 mps 768 mmHg 59%
    20:00 +22°C° 0 mm 1 mps 768 mmHg 61%
    21:00 +22°C° 0 mm 1 mps 768 mmHg 63%
    22:00 +21°C° 0 mm 1 mps 767 mmHg 65%
    23:00 +21°C° 0 mm 1 mps 767 mmHg 66%

    28 September, Friday

    Time Temperature Precipitation Wind Pressure Humidity
    00:00 +20°C° 0 mm 1 mps 767 mmHg 67%
    01:00 +20°C° 0 mm 1 mps 766 mmHg 68%
    02:00 +20°C° 0 mm 1 mps 766 mmHg 68%
    03:00 +20°C° 0 mm 1 mps 765 mmHg 68%
    04:00 +19°C° 0 mm 1 mps 765 mmHg 69%
    05:00 +19°C° 0 mm 1 mps 765 mmHg 67%
    06:00 +18°C° 0 mm 2 mps 764 mmHg 65%
    07:00 +18°C° 0 mm 2 mps 764 mmHg 63%
    08:00 +22°C° 0 mm 1 mps 764 mmHg 55%
    09:00 +24°C° 0 mm 1 mps 764 mmHg 46%
    10:00 +26°C° 0 mm 1 mps 764 mmHg 37%
    11:00 +27°C° 0 mm 2 mps 764 mmHg 35%
    12:00 +28°C° 0 mm 2 mps 764 mmHg 34%
    13:00 +29°C° 0 mm 2 mps 763 mmHg 32%
    14:00 +29°C° 0 mm 3 mps 763 mmHg 36%
    15:00 +29°C° 0 mm 4 mps 762 mmHg 40%
    16:00 +28°C° 0 mm 4 mps 762 mmHg 44%
    17:00 +26°C° 0 mm 4 mps 762 mmHg 52%
    18:00 +25°C° 0 mm 3 mps 762 mmHg 60%
    19:00 +22°C° 0 mm 3 mps 762 mmHg 68%
    20:00 +22°C° 0 mm 3 mps 762 mmHg 71%
    21:00 +21°C° 0 mm 2 mps 762 mmHg 74%
    22:00 +21°C° 0 mm 2 mps 762 mmHg 77%
    23:00 +20°C° 0 mm 2 mps 762 mmHg 78%

    29 September, Saturday

    Time Temperature Precipitation Wind Pressure Humidity
    00:00 +20°C° 0 mm 2 mps 762 mmHg 79%
    01:00 +20°C° 0 mm 2 mps 762 mmHg 81%
    02:00 +20°C° 0 mm 2 mps 761 mmHg 81%
    03:00 +19°C° 0 mm 2 mps 761 mmHg 82%
    04:00 +19°C° 0 mm 2 mps 761 mmHg 83%
    05:00 +19°C° 0 mm 2 mps 761 mmHg 82%
    06:00 +19°C° 0 mm 2 mps 761 mmHg 81%
    07:00 +20°C° 0 mm 1 mps 761 mmHg 79%
    08:00 +22°C° 0 mm 1 mps 761 mmHg 69%
    09:00 +25°C° 0 mm 1 mps 761 mmHg 59%
    10:00 +27°C° 0 mm 1 mps 762 mmHg 48%
    11:00 +28°C° 0 mm 2 mps 762 mmHg 45%
    12:00 +28°C° 0 mm 2 mps 761 mmHg 42%
    13:00 +29°C° 0 mm 2 mps 761 mmHg 38%
    14:00 +29°C° 0 mm 3 mps 761 mmHg 40%
    15:00 +29°C° 0 mm 3 mps 761 mmHg 42%
    16:00 +28°C° 0 mm 3 mps 761 mmHg 44%
    17:00 +27°C° 0 mm 3 mps 761 mmHg 51%
    18:00 +25°C° 0 mm 2 mps 761 mmHg 58%
    19:00 +23°C° 0 mm 2 mps 761 mmHg 66%
    20:00 +23°C° 0 mm 2 mps 761 mmHg 68%
    21:00 +21°C° 0 mm 2 mps 762 mmHg 70%
    22:00 +22°C° 0 mm 1 mps 762 mmHg 72%
    23:00 +21°C° 0 mm 1 mps 762 mmHg 72%

    30 September, Sunday

    Time Temperature Precipitation Wind Pressure Humidity
    00:00 +21°C° 0 mm 1 mps 762 mmHg 72%
    01:00 +21°C° 0 mm 1 mps 762 mmHg 72%
    02:00 +21°C° 0 mm 1 mps 761 mmHg 72%
    03:00 +21°C° 0 mm 1 mps 761 mmHg 73%
    04:00 +20°C° 0 mm 1 mps 761 mmHg 73%
    05:00 +21°C° 0 mm 1 mps 761 mmHg 72%
    06:00 +21°C° 0 mm 1 mps 761 mmHg 71%
    07:00 +21°C° 0 mm 1 mps 762 mmHg 71%
    08:00 +23°C° 0 mm 1 mps 762 mmHg 64%
    09:00 +25°C° 0 mm 1 mps 762 mmHg 58%
    10:00 +28°C° 0 mm 1 mps 762 mmHg 52%
    11:00 +28°C° 0 mm 1 mps 762 mmHg 50%
    12:00 +29°C° 0 mm 2 mps 762 mmHg 49%
    13:00 +29°C° 0 mm 2 mps 762 mmHg 47%
    14:00 +29°C° 0 mm 2 mps 762 mmHg 50%
    15:00 +28°C° 0 mm 2 mps 761 mmHg 54%
    16:00 +27°C° 0 mm 2 mps 761 mmHg 57%
    17:00 +26°C° 0.1 mm 2 mps 761 mmHg 62%
    18:00 +25°C° 0.1 mm 2 mps 762 mmHg 67%
    19:00 +24°C° 0.1 mm 1 mps 762 mmHg 72%
    20:00 +24°C° 0 mm 1 mps 762 mmHg 75%
    21:00 +23°C° 0 mm 1 mps 762 mmHg 77%
    22:00 +23°C° 0 mm 1 mps 763 mmHg 80%
    23:00 +23°C° 0.2 mm 1 mps 762 mmHg 81%
    Show more